Printer-friendly version

IAU Minor Planet Center

Minor Planet Center

MPEC 2008-O26 : 2003 PC11

The following Minor Planet Electronic Circular may be linked-to from your own Web pages, but must not otherwise be redistributed electronically.


Read MPEC 2008-O25 Read MPEC 2008-O27


M.P.E.C. 2008-O26                                Issued 2008 July 25, 14:32 UT

     The Minor Planet Electronic Circulars contain information on unusual
         minor planets and routine data on comets.  They are published
   on behalf of Commission 20 of the International Astronomical Union by the
          Minor Planet Center, Smithsonian Astrophysical Observatory,
                          Cambridge, MA 02138, U.S.A.

             Prepared using the Tamkin Foundation Computer Network

                              MPC@CFA.HARVARD.EDU
          URL http://www.cfa.harvard.edu/iau/mpc.html  ISSN 1523-6714

                                   2003 PC11

                           Revision to MPEC 2003-P37

Additional Observations:
     K03P11C 5C2008 07 24.47593 03 53 21.63 +33 00 25.4          20.2 R EO026673
     K03P11C 5C2008 07 24.47847 03 53 22.11 +33 00 29.8                 EO026673
     K03P11C 5C2008 07 24.48576 03 53 23.43 +33 00 38.4                 EO026673
     K03P11C 5C2008 07 24.49213 03 53 24.87 +33 00 50.7                 EO026673
     K03P11C 5C2008 07 25.46574 03 56 43.82 +33 24 58.1          20.2 R EO026673
     K03P11C 5C2008 07 25.47245 03 56 45.22 +33 25 07.9                 EO026673
     K03P11C 5C2008 07 25.48056 03 56 46.67 +33 25 18.8                 EO026673
     K03P11C 5C2008 07 25.48692 03 56 48.13 +33 25 29.3                 EO026673

Observer details:
673 Table Mountain Observatory, Wrightwood.  Observer J. Young.  0.61-m f/16
    Cassegrain + CCD.

First and last observations above in comparison with prediction:
Residuals in seconds of arc (or two decimals in degrees), reference and Delta-T
080724 673 0.04+ 0.02+    080725 673 0.04+ 0.02+    MPO 57919   -0.10 day

Orbital elements:
2003 PC11                                                Earth MOID = 0.2252 AU
Epoch 2008 May 14.0 TT = JDT 2454600.5                  MPC
M 352.36073              (2000.0)            P               Q
n   0.20183549     Peri.    9.50089     +0.98634894     +0.11586779
a   2.8783109      Node   342.49558     -0.16466268     +0.68795372
e   0.5733513      Incl.   22.89290     -0.00140382     +0.71644563
P   4.88           H   17.2           G   0.15           U   2
Residuals in seconds of arc
030805 704  1.0-  0.3+    030807 H36  0.6+  0.7-    030827 132  0.2-  0.1-
030805 704 (2.7+  0.1+)   030807 H36  0.1-  0.4+    030830 670  1.0+  0.3-
030805 704  0.5+  1.3+    030807 474  0.1+  0.0     030901 118  0.5+  0.1-
030805 704  0.4+  0.6+    030807 474  0.2+  0.1-    030901 118  0.7+  0.8-
030806 246  0.3-  0.3+    030807 474  0.2+  0.2-    030901 118  0.4+  0.1+
030806 246  0.4+  0.6+    030807 474  0.2-  0.1-    030901 118  0.4+  0.6+
030806 246  0.8-  0.8+    030807 474  0.2-  0.1+    030914 J95  0.2+  1.1+
030806 246  0.8-  0.1-    030808 118  0.9-  0.1+    030914 J95  1.2-  0.1+
030806 246  0.5-  0.3-    030808 118  0.3-  0.2+    030927 118  0.5+  0.6-
030806 246  0.1+  0.2+    030808 557  0.7+  0.4+    030927 118  0.5+  0.3-
030806 026  0.2-  0.2+    030808 557  0.4+  0.2+    031025 568  0.0   0.1-
030806 026  0.2+  0.2+    030808 557  0.1+  0.2-    031025 568  0.0   0.0
030806 026  0.1-  0.2-    030808 557  0.4+  0.2-    031102 540  0.7+  0.1+
030806 118  0.1+  0.4+    030809 704  0.0   0.5+    031102 540  0.3-  0.6-
030806 118  0.5+  0.2+    030809 704  0.7+  0.2-    031106 704  0.1-  0.2+
030806 620  0.1+  0.0     030809 704  1.2+  0.5-    031106 704  0.1-  0.7+
030806 620  0.1+  0.1+    030809 704  0.1+  0.0     031106 704  0.1+  0.6+
030806 620  0.3+  0.0     030810 170  0.8-  0.1-    031106 704  0.3-  0.3+
030807 557  0.0   0.0     030810 170  0.5-  0.4-    031207 926  0.4+  0.0
030807 J95  0.4+  0.8-    030814 620  1.3+  0.2+    031207 926  0.5+  0.4+
030807 557  0.1-  0.1-    030815 620  0.2+  0.4-    031207 926  0.4+  0.0
030807 246  0.2+  0.3-    030815 620  0.3-  0.7+    080724 673  0.1+  0.6-
030807 557  0.2+  0.1-    030823 785  0.2-  0.9-    080724 673  0.3-  0.1-
030807 246  0.2+  0.2-    030823 785 (2.8+  1.6-)   080724 673 (2.3-  2.5-)
030807 246  0.0   0.5+    030823 785 (1.8+  2.9-)   080724 673  0.4-  0.2+
030807 246  0.0   0.1+    030824 132  0.8+  0.3-    080725 673  0.5+  0.6+
030807 246  0.0   0.2-    030824 132  0.0   0.1+    080725 673  1.0+  0.4+
030807 246  0.5-  0.5-    030824 132  0.3+  0.1+    080725 673  1.5-  0.7-
030807 J95  0.1+  0.9+    030827 132  0.3-  0.0     080725 673  0.6+  0.3+
030807 J95  0.7-  1.0-    030827 132  0.1-  0.1-

Ephemeris:
2003 PC11                a,e,i = 2.88, 0.57, 23                  q = 1.2280
Date    TT    R. A. (2000) Decl.     Delta      r     Elong.  Phase     V
2008 07 23    03 48.34   +32 23.2    1.463    1.284    59.2    42.8    20.2
2008 08 02    04 22.51   +36 19.0    1.469    1.322    61.1    42.2    20.3
2008 08 12    04 56.83   +39 35.3    1.476    1.368    63.5    41.5    20.4
2008 08 22    05 30.65   +42 13.9    1.482    1.420    66.3    40.7    20.4
2008 09 01    06 03.24   +44 19.4    1.485    1.478    69.7    39.8    20.5
2008 09 11    06 33.82   +45 58.4    1.484    1.540    73.6    38.8    20.5
2008 09 21    07 01.72   +47 18.3    1.477    1.605    78.0    37.7    20.6
2008 10 01    07 26.33   +48 27.2    1.465    1.672    83.1    36.5    20.6
2008 10 11    07 47.08   +49 32.4    1.448    1.741    88.8    35.0    20.6
2008 10 21    08 03.43   +50 40.2    1.427    1.811    95.1    33.2    20.7
2008 10 31    08 14.73   +51 54.8    1.403    1.882   102.1    31.0    20.6
2008 11 10    08 20.22   +53 17.4    1.381    1.953   109.8    28.5    20.6
2008 11 20    08 19.12   +54 44.3    1.363    2.024   118.0    25.5    20.6
2008 11 30    08 10.77   +56 06.7    1.353    2.094   126.4    22.3    20.5
2008 12 10    07 55.27   +57 09.5    1.357    2.164   134.4    19.0    20.5
2008 12 20    07 34.25   +57 35.7    1.380    2.234   141.3    16.0    20.5
2008 12 30    07 10.87   +57 13.5    1.424    2.302   145.4    14.0    20.6
2009 01 09    06 49.11   +56 02.4    1.492    2.370   145.6    13.6    20.7
2009 01 19    06 31.94   +54 13.9    1.585    2.436   141.9    14.4    20.9
2009 01 29    06 20.53   +52 04.2    1.702    2.502   135.6    16.0    21.2
2009 02 08    06 14.75   +49 48.0    1.839    2.567   128.0    17.6    21.5
2009 02 18    06 13.75   +47 35.2    1.993    2.630   120.0    19.0    21.8
2009 02 28    06 16.55   +45 30.8    2.161    2.692   111.9    20.0    22.0

Gareth V. Williams           (C) Copyright 2008 MPC           M.P.E.C. 2008-O26

Read MPEC 2008-O25 Read MPEC 2008-O27


Our Web policy. Index to the CBAT/MPC/ICQ pages.


Valid HTML 4.01!